LMML

Luqa

Airport
ICAO code
LMML
Summary
ICAO Region
EUR
ICAO Territory
Location

Luqa,

Coordinates
35° 51' 25" N , 14° 28' 40" E
KCC
Metar
LMML 250415Z AUTO 05010KT CAVOK 20/18 Q1014 NOSIG

Description

International airport serving the island of Malta.

Climatology

Dry-summer subtropical ”Mediterranean" climate (Köppen climate classification Csa) - characterized by hot, dry summers and mild winters. During the summer, subtropical high pressure cells dominate, making rainfall unlikely except for the occasional thunderstorm. In the winter, periodic storms bring rain.

Runways

Designator Length Width Surface Rops
5/23 2377 45 ASP Yes/Yes
13/31 3544 60 ASP Yes/Yes

Airport map

Aerial View

SKYbrary Partners:

Safety knowledge contributed by: